Regional Weather Roundup
Issued by NWS Cleveland, OH

Home | Current Version | Previous Version | Graphics & Text | Print | Product List | Glossary On
Versions: 1 2 3 4 5 6 7 8 9 10 11 12 13 14 15 16 17 18 19 20 21 22 23 24 25 26 27 28 29 30 31 32 33 34 35 36 37 38 39 40 41 42 43 44 45 46 47 48 49 50
000
ASUS41 KCLE 210702
RWRCLE
OHIO REGIONAL WEATHER ROUNDUP
NATIONAL WEATHER SERVICE CLEVELAND, OH
300 AM EDT TUE APR 21 2015

NOTE: "FAIR" INDICATES FEW OR NO CLOUDS BELOW 12,000 FEET WITH NO
SIGNIFICANT WEATHER AND/OR OBSTRUCTIONS TO VISIBILITY.

OHZ001>008-015>018-024>027-034-035-043-044-210800-
   NORTHWEST OHIO

CITY           SKY/WX    TMP DP  RH WIND       PRES   REMARKS
DEFIANCE       CLOUDY    45  35  68 SW9       29.66F
FINDLAY        CLOUDY    45  36  70 SW15      29.67F
TOLEDO EXPRESS MOCLDY    43  32  65 SW9G18    29.64S
TOLEDO EXEC    CLEAR     43  33  68 SW10      29.66R
LIMA           CLOUDY    46  35  65 SW16      29.70S
$$

OHZ009>014-019>023-028>033-038-089-210800-
   NORTHEAST OHIO

CITY           SKY/WX    TMP DP  RH WIND       PRES   REMARKS
CLE-HOPKINS    MOCLDY    46  32  58 W20G25    29.67S
CLE-LAKEFRONT  CLOUDY    48  33  56 SW25G39   29.65R
CUY CO. ARPT   NOT AVBL
LORAIN-ELYRIA  PTCLDY    45  33  63 W21G29    29.67R
ASHTABULA      PTCLDY    45  35  68 SW9       29.64S
AKRON-CANTON   MOCLDY    46  31  55 SW16G25   29.69R
WOOSTER        MOCLDY    44  34  67 SW16      29.70R
MANSFIELD      MOCLDY    43  34  70 SW13G18   29.69S
YOUNGSTOWN     CLOUDY    45  35  68 SW20      29.66R
$$

OHZ042-051>053-060>062-070>072-077>081-210800-
  SOUTHWEST OHIO

CITY           SKY/WX    TMP DP  RH WIND       PRES   REMARKS
CINC-COVINGTON MOCLDY    46  35  65 SW8       29.80F
CINC-LUNKEN    MOCLDY    45  36  70 SW8       29.82S
HAMILTON       MOCLDY    47  35  63 SW5       29.80F
DAYTON         PTCLDY    45  36  70 SW13      29.76S
WRIGHT-PAT AFB MOCLDY    46  36  68 SW10      29.76S
DAYTON GENERAL CLOUDY    46  36  68 SW9       29.76F
WILMINGTON     MOCLDY    44  35  70 SW9       29.78S
$$

OHZ036-037-039>041-045>050-054>059-063>069-073>076-082>088-210800-
  CENTRAL AND SOUTHEAST OHIO

CITY           SKY/WX    TMP DP  RH WIND       PRES   REMARKS
COLUMBUS       MOCLDY    46  37  71 SW10      29.75S
OSU AIRPORT    MOCLDY    46  36  68 SW12      29.75S
BOLTON FIELD   NOT AVBL
RICKENBACK AFB NOT AVBL
NEWARK         CLOUDY    47  36  65 SW7       29.74F
MARION         CLOUDY    45  34  65 W13G22    29.71F
LANCASTER      CLOUDY    47  36  65 SW9       29.77S
ZANESVILLE     CLOUDY    46  35  65 W8        29.75S
NEW PHILLY     CLOUDY    49  34  56 W10G17    29.74R
$$


USA.gov is the U.S. government's official web portal to all federal, state and local government web resources and services.